[[{"header":{"parameterUnit":"m.s-1","parameterCategory":1,"la1":30.2991,"la2":30.254,"lo1":-89.0895,"lo2":-89.0444,"dy":0.0017,"dx":0.0017,"nx":28,"ny":28,"refTime":"2026-01-10T03:00:00:Z","depth":0,"parameterNumber":2,"parameterNumberName":"U-component_of_WINDS"},"data":[0,0,0,0,0,0,0,0,0,0,0,0,0,0,0,0,0,0,0,0,0,0,0,0,0,0,0,0,0,0,0,0,0,0,0,0,0,0,0,0,0,0,0,0,0,0,0,0,0,0,0,0,0,0,0,0,0,0,-1.3646,-1.3646,0,-1.3672,-1.3673,-1.3673,-1.3674,-1.3674,-1.3674,-1.3674,-1.3699,-1.37,-1.3701,0,0,0,0,0,0,0,0,0,0,0,0,0,-1.3595,-1.3595,-1.3646,-1.3646,-1.3647,-1.3672,-1.3673,-1.3673,-1.3674,-1.3674,-1.3674,-1.3673,-1.3699,-1.37,-1.3701,0,0,0,0,0,0,0,0,0,0,0,0,0,-1.3618,-1.3596,-1.3646,-1.365,-1.3651,-1.3672,-1.3673,-1.3673,-1.3675,-1.3674,-1.3674,-1.3673,-1.3698,-1.37,-1.3701,-1.3719,0,0,-1.3706,-1.3706,0,0,0,0,0,0,0,0,-1.3617,-1.362,-1.3649,-1.365,-1.3651,-1.367,-1.3664,-1.3689,-1.3675,-1.3666,-1.3674,-1.3673,-1.369,-1.3692,-1.3698,-1.372,-1.3722,-1.3706,-1.3707,-1.3707,-1.3708,0,0,0,0,0,0,0,-1.3615,-1.3619,-1.3656,-1.365,-1.3651,-1.365,-1.3653,-1.3669,-1.368,-1.3666,-1.3666,-1.367,-1.369,-1.3696,-1.3698,-1.3722,-1.3706,-1.3707,-1.3708,-1.3709,-1.376,-1.376,0,0,0,0,0,0,-1.3613,-1.3618,-1.3655,-1.3657,-1.3633,-1.3652,-1.3655,-1.3664,-1.368,-1.3682,-1.367,-1.367,-1.3694,-1.3697,-1.3699,-1.3721,-1.3707,-1.3709,-1.3709,-1.3759,-1.376,-1.3761,0,0,0,0,0,0,-1.3612,-1.3617,-1.3654,-1.3638,-1.3642,-1.3653,-1.3663,-1.3665,-1.3671,-1.3682,-1.3684,-1.3675,-1.3694,-1.3697,-1.3714,-1.3721,-1.3709,-1.3711,-1.3759,-1.376,-1.376,-1.3764,0,0,0,0,0,0,-1.3611,-1.3616,-1.3623,-1.3638,-1.3643,-1.3669,-1.3664,-1.3666,-1.3674,-1.3674,-1.3687,-1.3689,-1.3694,-1.3712,-1.3716,-1.3723,-1.3712,-1.3758,-1.3759,-1.376,-1.3763,-1.3765,-1.3766,0,0,0,0,0,-1.3609,-1.3623,-1.3624,-1.3628,-1.3653,-1.367,-1.3673,-1.3678,-1.3674,-1.3682,-1.3689,-1.3689,-1.372,-1.3714,-1.3718,-1.3726,-1.3758,-1.3759,-1.376,-1.3762,-1.3764,-1.3766,0,0,0,0,0,0,-1.3609,-1.3625,-1.3626,-1.3646,-1.3656,-1.367,-1.3679,-1.368,-1.3692,-1.3691,-1.3697,-1.37,-1.3717,-1.3723,-1.3716,-1.3744,-1.3738,-1.374,-1.3739,-1.3741,-1.3742,-1.374,-1.3713,0,0,0,0,0,-1.3612,-1.3625,-1.3638,-1.3654,-1.3659,-1.3668,-1.3676,-1.3679,-1.3691,-1.3695,-1.3703,-1.3714,-1.3726,-1.3734,-1.3746,-1.3764,-1.3767,-1.3772,-1.3773,-1.3774,-1.3776,-1.3785,-1.3787,-1.3764,-1.3764,-1.3764,0,0,-1.3616,-1.3627,-1.3635,-1.3654,-1.3663,-1.3676,-1.3672,-1.3686,-1.3695,-1.3697,-1.3713,-1.372,-1.3732,-1.3749,-1.3758,-1.3755,-1.3783,-1.3776,-1.3777,-1.3777,-1.3786,-1.3789,-1.3791,-1.3765,-1.3765,-1.3765,0,0,-1.3632,-1.3642,-1.3656,-1.3664,-1.3678,-1.3684,-1.3687,-1.3701,-1.3705,-1.3722,-1.3723,-1.3734,-1.3756,-1.3764,-1.3771,-1.3789,-1.3789,-1.3793,-1.38,-1.3809,-1.3811,-1.3812,-1.3818,-1.382,-1.3794,-1.3794,-1.3794,0,-1.3636,-1.3656,-1.3662,-1.3676,-1.3684,-1.3687,-1.3701,-1.3709,-1.3725,-1.373,-1.3728,-1.3754,-1.3762,-1.3782,-1.3786,-1.3792,-1.3795,-1.3791,-1.381,-1.3812,-1.3813,-1.3819,-1.3821,-1.3795,-1.3795,-1.3795,-1.3795,0,-1.366,-1.3674,-1.3683,-1.3699,-1.3709,-1.3722,-1.373,-1.3739,-1.3741,-1.3747,-1.3764,-1.3774,-1.3788,-1.3793,-1.3796,-1.3812,-1.381,-1.3809,-1.3804,-1.3816,-1.3821,-1.3823,-1.3795,-1.3795,-1.3795,-1.3795,0,0,-1.3676,-1.3695,-1.3699,-1.3706,-1.3721,-1.3731,-1.3745,-1.3758,-1.3765,-1.3777,-1.3787,-1.3805,-1.3804,-1.3812,-1.3815,-1.3824,-1.3836,-1.3821,-1.3821,-1.3823,-1.3855,-1.3855,-1.3857,-1.3837,-1.3837,-1.3838,-1.3853,0,-1.3692,-1.3716,-1.3723,-1.3743,-1.3755,-1.3758,-1.377,-1.378,-1.3786,-1.3797,-1.3803,-1.3815,-1.3813,-1.3818,-1.3826,-1.3833,-1.3843,-1.3832,-1.3846,-1.3847,-1.3842,-1.386,-1.3861,-1.3875,-1.3856,-1.3856,-1.3856,0,-1.3714,-1.3726,-1.3748,-1.3761,-1.3766,-1.3777,-1.3789,-1.38,-1.3811,-1.3815,-1.3824,-1.3827,-1.384,-1.3835,-1.3853,-1.3846,-1.3852,-1.3856,-1.3857,-1.3858,-1.3851,-1.3861,-1.388,-1.3882,-1.386,-1.3859,-1.3859,0,-1.3722,-1.3744,-1.3759,-1.3766,-1.3781,-1.3788,-1.3795,-1.3806,-1.3814,-1.3825,-1.383,-1.3843,-1.3849,-1.3859,-1.3865,-1.386,-1.3882,-1.3878,-1.3885,-1.3885,-1.3889,-1.3888,-1.3908,-1.3894,-1.3894,-1.3894,-1.3894,0,-1.3739,-1.3752,-1.3763,-1.3773,-1.3787,-1.3794,-1.3808,-1.3815,-1.3824,-1.3835,-1.3838,-1.3848,-1.3856,-1.3866,-1.3871,-1.3885,-1.3888,-1.3891,-1.3892,-1.389,-1.389,-1.3894,-1.3892,-1.3895,-1.3895,-1.3895,-1.3895,0,-1.375,-1.3758,-1.3775,-1.3789,-1.3793,-1.3803,-1.3814,-1.3823,-1.3829,-1.3842,-1.3846,-1.3855,-1.3868,-1.3875,-1.3891,-1.3894,-1.3909,-1.391,-1.3906,-1.3906,-1.3913,-1.3911,-1.3935,-1.3938,-1.3923,-1.3923,-1.3923,0,-1.376,-1.377,-1.3785,-1.3792,-1.3799,-1.3811,-1.3819,-1.3826,-1.3834,-1.3848,-1.3855,-1.3868,-1.3878,-1.3898,-1.3906,-1.3918,-1.3919,-1.3927,-1.3921,-1.3919,-1.3918,-1.3917,-1.3918,-1.3927,-1.3927,-1.3927,-1.3927,0,-1.3776,-1.378,-1.3791,-1.3804,-1.3814,-1.3824,-1.3834,-1.384,-1.3849,-1.3858,-1.3871,-1.3879,-1.3895,-1.3908,-1.392,-1.3927,-1.3928,-1.3929,-1.3932,-1.3929,-1.3926,-1.3927,-1.3907,-1.3929,-1.3928,-1.3928,-1.3928,-1.3928,-1.3786,-1.3795,-1.3806,-1.3819,-1.3828,-1.3837,-1.3846,-1.3854,-1.3865,-1.3879,-1.3882,-1.3896,-1.3906,-1.3924,-1.3931,-1.3941,-1.394,-1.3943,-1.3944,-1.3944,-1.3944,-1.3925,-1.3943,-1.3943,-1.3943,-1.3943,-1.3943,0,-1.3802,-1.3809,-1.3821,-1.3835,-1.3845,-1.3846,-1.3858,-1.3866,-1.3878,-1.3888,-1.3898,-1.3913,-1.3925,-1.3934,-1.3947,-1.3953,-1.3954,-1.3956,-1.3955,-1.3956,-1.3945,-1.3941,-1.3955,-1.3955,-1.3955,-1.3955,-1.3955,-1.3955,-1.3811,-1.3825,-1.383,-1.3849,-1.3856,-1.387,-1.3876,-1.3885,-1.3893,-1.3909,-1.3919,-1.3926,-1.3935,-1.3948,-1.3959,-1.3962,-1.3966,-1.3967,-1.397,-1.3959,-1.3957,-1.3956,-1.3953,-1.3968,-1.3968,-1.398,-1.398,-1.398]},{"header":{"parameterUnit":"m.s-1","parameterCategory":1,"la1":30.2991,"la2":30.254,"lo1":-89.0895,"lo2":-89.0444,"dy":0.0017,"dx":0.0017,"nx":28,"ny":28,"refTime":"2026-01-10T03:00:00:Z","depth":0,"parameterNumber":3,"parameterNumberName":"V-component_of_WINDS"},"data":[0,0,0,0,0,0,0,0,0,0,0,0,0,0,0,0,0,0,0,0,0,0,0,0,0,0,0,0,0,0,0,0,0,0,0,0,0,0,0,0,0,0,0,0,0,0,0,0,0,0,0,0,0,0,0,0,0,0,3.7426,3.7426,0,3.7438,3.7439,3.7439,3.7451,3.7451,3.7451,3.7451,3.7464,3.7464,3.7464,0,0,0,0,0,0,0,0,0,0,0,0,0,3.7413,3.7413,3.7426,3.7426,3.7426,3.7438,3.7439,3.7439,3.7451,3.7451,3.7451,3.7451,3.7464,3.7464,3.7464,0,0,0,0,0,0,0,0,0,0,0,0,0,3.7421,3.7413,3.7426,3.7433,3.7434,3.7438,3.7439,3.7439,3.7451,3.7451,3.7451,3.7451,3.7464,3.7464,3.7464,3.7462,0,0,3.7465,3.7465,0,0,0,0,0,0,0,0,3.7421,3.7422,3.7432,3.7433,3.7434,3.7443,3.7439,3.7446,3.7451,3.7444,3.7451,3.7451,3.7457,3.7458,3.7459,3.7462,3.7463,3.7465,3.7465,3.7465,3.7465,0,0,0,0,0,0,0,3.742,3.7421,3.7431,3.7432,3.7433,3.7437,3.7438,3.744,3.7449,3.7445,3.7446,3.7447,3.7457,3.7459,3.746,3.7463,3.7465,3.7465,3.7466,3.7466,3.7468,3.7468,0,0,0,0,0,0,3.7418,3.7421,3.743,3.7431,3.7428,3.7437,3.7438,3.744,3.7449,3.7451,3.7447,3.7448,3.7459,3.7459,3.746,3.746,3.7465,3.7466,3.7466,3.7468,3.7468,3.7468,0,0,0,0,0,0,3.7418,3.7419,3.743,3.7426,3.7428,3.7437,3.7438,3.744,3.7442,3.7451,3.7452,3.7447,3.7459,3.746,3.7462,3.7461,3.7466,3.7466,3.7468,3.7468,3.7468,3.7458,0,0,0,0,0,0,3.7418,3.7419,3.7417,3.7426,3.7428,3.743,3.7438,3.744,3.7443,3.7444,3.7451,3.7453,3.7459,3.7462,3.7462,3.7461,3.7466,3.7468,3.7468,3.7468,3.7459,3.7458,3.7457,0,0,0,0,0,3.7417,3.7413,3.7417,3.7418,3.7426,3.743,3.7431,3.7439,3.7442,3.7442,3.7448,3.7453,3.7461,3.7462,3.7463,3.7461,3.7468,3.7468,3.7468,3.7459,3.7458,3.7457,0,0,0,0,0,0,3.7403,3.7414,3.7419,3.7417,3.7423,3.7432,3.7431,3.7437,3.7441,3.7442,3.7451,3.7452,3.7454,3.7458,3.7459,3.7461,3.7465,3.7465,3.7458,3.7457,3.7456,3.7456,3.7467,0,0,0,0,0,3.74,3.7402,3.7412,3.741,3.7413,3.7422,3.7424,3.7429,3.7435,3.7437,3.7443,3.7449,3.7453,3.7455,3.7459,3.7459,3.7463,3.7459,3.7459,3.7458,3.7458,3.7461,3.746,3.7467,3.7467,3.7467,0,0,3.7393,3.74,3.74,3.7407,3.7412,3.7416,3.7423,3.7425,3.7428,3.7437,3.744,3.7445,3.7452,3.7454,3.7455,3.7458,3.7457,3.7457,3.7457,3.7457,3.746,3.746,3.7459,3.7466,3.7466,3.7467,0,0,3.7382,3.7387,3.7387,3.7393,3.7401,3.7407,3.7407,3.7416,3.742,3.7424,3.7432,3.7435,3.7441,3.7447,3.7451,3.7446,3.7452,3.7447,3.7443,3.7446,3.7445,3.7445,3.7445,3.7445,3.7447,3.7447,3.7447,0,3.7373,3.7377,3.7386,3.7389,3.7393,3.7403,3.7404,3.7409,3.7418,3.742,3.7423,3.7433,3.7438,3.7443,3.7443,3.7444,3.7446,3.7446,3.7444,3.7444,3.7444,3.7444,3.7444,3.7447,3.7447,3.7447,3.7447,0,3.7367,3.737,3.7369,3.7379,3.7383,3.7384,3.7395,3.7398,3.7404,3.741,3.7415,3.7422,3.7429,3.7431,3.7436,3.7437,3.7439,3.7443,3.7447,3.7443,3.7443,3.7443,3.7446,3.7446,3.7446,3.7446,0,0,3.7345,3.7362,3.7362,3.7368,3.7379,3.7382,3.7385,3.7393,3.7397,3.7403,3.7407,3.7414,3.7419,3.7423,3.7429,3.7431,3.743,3.7436,3.7436,3.7436,3.7434,3.7432,3.7432,3.7434,3.7434,3.7434,3.7434,0,3.7338,3.7344,3.7354,3.7358,3.7363,3.7374,3.7377,3.7385,3.7392,3.7397,3.7405,3.741,3.7415,3.7419,3.7421,3.743,3.743,3.743,3.7439,3.7439,3.7437,3.7432,3.7428,3.7428,3.7434,3.7434,3.7434,0,3.7329,3.7337,3.7341,3.7355,3.7357,3.736,3.7369,3.7374,3.7384,3.7389,3.7396,3.7403,3.7409,3.7413,3.7422,3.7421,3.7426,3.7431,3.7431,3.7432,3.7437,3.7434,3.7428,3.7428,3.7434,3.7434,3.7434,0,3.7315,3.7326,3.7332,3.7336,3.7351,3.7354,3.736,3.737,3.7375,3.7384,3.7388,3.7396,3.7401,3.7408,3.7419,3.742,3.7427,3.7431,3.7433,3.7432,3.7433,3.7433,3.7429,3.7435,3.7435,3.7435,3.7435,0,3.7306,3.7309,3.7326,3.7329,3.7334,3.7345,3.735,3.7357,3.7367,3.7372,3.7382,3.7387,3.74,3.7408,3.7416,3.7423,3.7425,3.743,3.7432,3.7429,3.7429,3.7433,3.7433,3.7435,3.7435,3.7435,3.7435,0,3.7291,3.7303,3.7309,3.7324,3.7329,3.7331,3.7344,3.7349,3.7357,3.7365,3.7367,3.738,3.739,3.7401,3.7413,3.7419,3.7426,3.7429,3.7423,3.7424,3.7425,3.7425,3.7423,3.7424,3.7429,3.7429,3.7429,0,3.7285,3.7288,3.7304,3.7309,3.7316,3.7323,3.7329,3.7342,3.7347,3.7361,3.7364,3.7374,3.7383,3.7397,3.7409,3.7419,3.7423,3.7421,3.7424,3.7422,3.7424,3.7424,3.7426,3.7421,3.742,3.742,3.742,0,3.7273,3.7279,3.7287,3.7299,3.7306,3.7315,3.7325,3.7328,3.7343,3.7349,3.736,3.7367,3.7381,3.7391,3.7404,3.7411,3.7419,3.742,3.7421,3.7418,3.7415,3.7418,3.7422,3.7419,3.7419,3.742,3.742,3.742,3.7263,3.7267,3.728,3.729,3.7299,3.7309,3.7314,3.7324,3.7333,3.7346,3.7353,3.7364,3.7376,3.7394,3.7401,3.741,3.7413,3.7414,3.7414,3.7415,3.7415,3.7414,3.7412,3.7412,3.7412,3.7413,3.7413,0,3.7253,3.7263,3.7272,3.7286,3.7294,3.7302,3.7313,3.732,3.7329,3.734,3.735,3.7363,3.7374,3.7387,3.7399,3.7404,3.7408,3.7407,3.7407,3.7409,3.7411,3.7409,3.7404,3.7404,3.7404,3.7404,3.7404,3.7404,3.7249,3.7257,3.7265,3.7279,3.7289,3.73,3.7306,3.7316,3.7325,3.734,3.7349,3.7358,3.7371,3.7385,3.7396,3.7399,3.7404,3.7402,3.7407,3.7408,3.7409,3.7409,3.7408,3.7403,3.7403,3.7405,3.7405,3.7405]}]]